Time,TemperatureF,DewpointF,PressureIn,WindDirection,WindDirectionDegrees,WindSpeedMPH,WindSpeedGustMPH,Humidity,HourlyPrecipIn,Conditions,Clouds,dailyrainin,SoftwareType,DateUTC
2013-03-30 00:00:00,40.7,28.7,30.05,SW,218,7.0,11.0,62,0.00,,---,0.00,VWS V13.00,2013-03-30 06:00:00,
2013-03-30 00:05:00,40.7,28.7,30.05,SW,229,7.0,12.0,62,0.00,,---,0.00,VWS V13.00,2013-03-30 06:05:00,
2013-03-30 00:10:00,40.7,28.7,30.05,SW,225,6.0,7.0,62,0.00,,---,0.00,VWS V13.00,2013-03-30 06:10:00,
2013-03-30 00:15:00,40.6,28.6,30.05,SW,219,6.0,10.0,62,0.00,,---,0.00,VWS V13.00,2013-03-30 06:15:00,
2013-03-30 00:20:00,40.4,28.8,30.05,SW,227,6.0,10.0,63,0.00,,---,0.00,VWS V13.00,2013-03-30 06:20:00,
2013-03-30 00:25:00,39.9,28.7,30.06,SW,232,8.0,11.0,64,0.00,,---,0.00,VWS V13.00,2013-03-30 06:25:00,
2013-03-30 00:30:00,39.3,28.9,30.06,SW,220,6.0,12.0,66,0.00,,---,0.00,VWS V13.00,2013-03-30 06:30:00,
2013-03-30 00:35:00,38.9,28.9,30.06,SW,225,11.0,13.0,67,0.00,,---,0.00,VWS V13.00,2013-03-30 06:35:00,
2013-03-30 00:40:00,38.6,29.0,30.07,SW,228,10.0,12.0,68,0.00,,---,0.00,VWS V13.00,2013-03-30 06:40:00,
2013-03-30 00:45:00,38.3,28.7,30.07,SW,222,12.0,13.0,68,0.00,,---,0.00,VWS V13.00,2013-03-30 06:45:00,
2013-03-30 00:50:00,38.3,29.0,30.07,SW,226,6.0,13.0,69,0.00,,---,0.00,VWS V13.00,2013-03-30 06:50:00,
2013-03-30 00:55:00,38.4,29.1,30.07,SW,229,9.0,13.0,69,0.00,,---,0.00,VWS V13.00,2013-03-30 06:55:00,
2013-03-30 01:00:00,38.3,29.4,30.07,SW,233,11.0,13.0,70,0.00,,---,0.00,VWS V13.00,2013-03-30 07:00:00,
2013-03-30 01:05:00,38.2,29.6,30.07,SW,234,10.0,13.0,71,0.00,,---,0.00,VWS V13.00,2013-03-30 07:05:00,
2013-03-30 01:10:00,38.2,30.0,30.07,SW,234,10.0,10.0,72,0.00,,---,0.00,VWS V13.00,2013-03-30 07:10:00,
2013-03-30 01:15:00,38.2,30.0,30.07,WSW,252,2.0,10.0,72,0.00,,---,0.00,VWS V13.00,2013-03-30 07:15:00,
2013-03-30 01:20:00,38.1,29.5,30.07,WNW,291,5.0,10.0,71,0.00,,---,0.00,VWS V13.00,2013-03-30 07:20:00,
2013-03-30 01:25:00,38.0,29.5,30.07,WNW,302,0.0,10.0,71,0.00,,---,0.00,VWS V13.00,2013-03-30 07:25:00,
2013-03-30 01:30:00,37.8,29.6,30.07,WNW,302,6.0,10.0,72,0.00,,---,0.00,VWS V13.00,2013-03-30 07:30:00,
2013-03-30 01:35:00,38.0,29.8,30.07,WNW,288,3.0,11.0,72,0.00,,---,0.00,VWS V13.00,2013-03-30 07:35:00,
2013-03-30 01:40:00,38.2,30.0,30.08,WNW,289,0.0,0.0,72,0.00,,---,0.00,VWS V13.00,2013-03-30 07:40:00,
2013-03-30 01:45:00,38.2,30.0,30.08,WNW,289,0.0,0.0,72,0.00,,---,0.00,VWS V13.00,2013-03-30 07:45:00,
2013-03-30 01:50:00,38.2,29.6,30.08,WNW,289,0.0,0.0,71,0.00,,---,0.00,VWS V13.00,2013-03-30 07:50:00,
2013-03-30 01:55:00,38.1,29.5,30.07,WNW,288,0.0,0.0,71,0.00,,---,0.00,VWS V13.00,2013-03-30 07:55:00,
2013-03-30 02:00:00,38.0,29.8,30.07,WNW,289,0.0,0.0,72,0.00,,---,0.00,VWS V13.00,2013-03-30 08:00:00,
2013-03-30 02:05:00,37.9,29.7,30.07,WNW,282,4.0,7.0,72,0.00,,---,0.00,VWS V13.00,2013-03-30 08:05:00,
2013-03-30 02:10:00,37.7,29.5,30.07,West,281,5.0,5.0,72,0.00,,---,0.00,VWS V13.00,2013-03-30 08:10:00,
2013-03-30 02:15:00,37.5,29.3,30.07,West,280,6.0,6.0,72,0.00,,---,0.00,VWS V13.00,2013-03-30 08:15:00,
2013-03-30 02:20:00,37.2,29.0,30.07,West,277,4.0,6.0,72,0.00,,---,0.00,VWS V13.00,2013-03-30 08:20:00,
2013-03-30 02:25:00,36.9,28.7,30.07,West,272,4.0,7.0,72,0.00,,---,0.00,VWS V13.00,2013-03-30 08:25:00,
2013-03-30 02:30:00,36.7,28.9,30.07,WSW,248,5.0,7.0,73,0.00,,---,0.00,VWS V13.00,2013-03-30 08:30:00,
2013-03-30 02:35:00,36.5,28.7,30.07,SW,220,4.0,10.0,73,0.00,,---,0.00,VWS V13.00,2013-03-30 08:35:00,
2013-03-30 02:40:00,36.4,28.6,30.08,SW,221,5.0,9.0,73,0.00,,---,0.00,VWS V13.00,2013-03-30 08:40:00,
2013-03-30 02:45:00,36.4,28.6,30.08,SW,220,3.0,10.0,73,0.00,,---,0.00,VWS V13.00,2013-03-30 08:45:00,
2013-03-30 02:50:00,36.4,28.6,30.08,SW,216,5.0,10.0,73,0.00,,---,0.00,VWS V13.00,2013-03-30 08:50:00,
2013-03-30 02:55:00,36.6,28.4,30.08,SW,217,5.0,10.0,72,0.00,,---,0.00,VWS V13.00,2013-03-30 08:55:00,
2013-03-30 03:00:00,36.7,28.5,30.08,SW,217,5.0,10.0,72,0.00,,---,0.00,VWS V13.00,2013-03-30 09:00:00,
2013-03-30 03:05:00,36.7,28.5,30.08,SW,218,5.0,10.0,72,0.00,,---,0.00,VWS V13.00,2013-03-30 09:05:00,
2013-03-30 03:10:00,36.7,28.2,30.08,SW,219,7.0,7.0,71,0.00,,---,0.00,VWS V13.00,2013-03-30 09:10:00,
2013-03-30 03:15:00,36.7,28.2,30.08,SW,220,5.0,8.0,71,0.00,,---,0.00,VWS V13.00,2013-03-30 09:15:00,
2013-03-30 03:20:00,36.6,28.1,30.08,SSW,213,4.0,9.0,71,0.00,,---,0.00,VWS V13.00,2013-03-30 09:20:00,
2013-03-30 03:25:00,36.6,27.8,30.08,SW,215,4.0,9.0,70,0.00,,---,0.00,VWS V13.00,2013-03-30 09:25:00,
2013-03-30 03:30:00,36.5,27.7,30.08,SW,219,9.0,9.0,70,0.00,,---,0.00,VWS V13.00,2013-03-30 09:30:00,
2013-03-30 03:34:00,36.5,27.7,30.08,SW,221,7.0,10.0,70,0.00,,---,0.00,VWS V13.00,2013-03-30 09:34:00,
2013-03-30 03:39:00,36.3,27.5,30.08,SW,225,6.0,7.0,70,0.00,,---,0.00,VWS V13.00,2013-03-30 09:39:00,
2013-03-30 03:44:00,36.1,27.3,30.08,SW,222,7.0,11.0,70,0.00,,---,0.00,VWS V13.00,2013-03-30 09:44:00,
2013-03-30 03:49:00,35.7,26.9,30.08,SW,229,6.0,12.0,70,0.00,,---,0.00,VWS V13.00,2013-03-30 09:49:00,
2013-03-30 03:54:00,35.3,26.9,30.09,SW,225,8.0,12.0,71,0.00,,---,0.00,VWS V13.00,2013-03-30 09:54:00,
2013-03-30 03:59:00,35.0,26.9,30.09,SW,225,7.0,12.0,72,0.00,,---,0.00,VWS V13.00,2013-03-30 09:59:00,
2013-03-30 04:04:00,34.7,26.6,30.09,SW,223,9.0,12.0,72,0.00,,---,0.00,VWS V13.00,2013-03-30 10:04:00,
2013-03-30 04:09:00,34.4,26.7,30.09,SW,227,6.0,9.0,73,0.00,,---,0.00,VWS V13.00,2013-03-30 10:09:00,
2013-03-30 04:14:00,34.4,27.0,30.09,SW,233,11.0,11.0,74,0.00,,---,0.00,VWS V13.00,2013-03-30 10:14:00,
2013-03-30 04:19:00,34.3,27.2,30.09,WSW,241,9.0,12.0,75,0.00,,---,0.00,VWS V13.00,2013-03-30 10:19:00,
2013-03-30 04:24:00,34.4,27.6,30.09,WSW,241,9.0,12.0,76,0.00,,---,0.00,VWS V13.00,2013-03-30 10:24:00,
2013-03-30 04:29:00,34.4,27.3,30.09,SW,234,6.0,12.0,75,0.00,,---,0.00,VWS V13.00,2013-03-30 10:29:00,
2013-03-30 04:34:00,34.4,27.3,30.09,SW,233,5.0,12.0,75,0.00,,---,0.00,VWS V13.00,2013-03-30 10:34:00,
2013-03-30 04:39:00,34.4,27.3,30.09,SW,234,6.0,9.0,75,0.00,,---,0.00,VWS V13.00,2013-03-30 10:39:00,
2013-03-30 04:44:00,34.7,27.6,30.09,SW,236,5.0,10.0,75,0.00,,---,0.00,VWS V13.00,2013-03-30 10:44:00,
2013-03-30 04:49:00,34.8,27.7,30.09,SW,236,4.0,10.0,75,0.00,,---,0.00,VWS V13.00,2013-03-30 10:49:00,
2013-03-30 04:54:00,34.9,27.8,30.09,SW,236,0.0,10.0,75,0.00,,---,0.00,VWS V13.00,2013-03-30 10:54:00,
2013-03-30 04:59:00,34.8,28.0,30.09,SW,236,0.0,10.0,76,0.00,,---,0.00,VWS V13.00,2013-03-30 10:59:00,
2013-03-30 05:04:00,34.9,28.1,30.09,SW,236,0.0,10.0,76,0.00,,---,0.00,VWS V13.00,2013-03-30 11:04:00,
2013-03-30 05:09:00,34.8,28.0,30.09,SW,236,0.0,0.0,76,0.00,,---,0.00,VWS V13.00,2013-03-30 11:09:00,
2013-03-30 05:14:00,34.9,27.8,30.09,SW,236,0.0,0.0,75,0.00,,---,0.00,VWS V13.00,2013-03-30 11:14:00,
2013-03-30 05:19:00,35.0,27.9,30.09,SW,236,0.0,0.0,75,0.00,,---,0.00,VWS V13.00,2013-03-30 11:19:00,
2013-03-30 05:24:00,35.0,27.9,30.09,SW,236,0.0,0.0,75,0.00,,---,0.00,VWS V13.00,2013-03-30 11:24:00,
2013-03-30 05:29:00,35.1,28.0,30.09,SW,236,0.0,0.0,75,0.00,,---,0.00,VWS V13.00,2013-03-30 11:29:00,
2013-03-30 05:34:00,35.1,28.0,30.09,SW,236,0.0,0.0,75,0.00,,---,0.00,VWS V13.00,2013-03-30 11:34:00,
2013-03-30 05:39:00,35.0,27.9,30.09,SW,236,0.0,0.0,75,0.00,,---,0.00,VWS V13.00,2013-03-30 11:39:00,
2013-03-30 05:44:00,35.0,27.9,30.09,SW,236,0.0,0.0,75,0.00,,---,0.00,VWS V13.00,2013-03-30 11:44:00,
2013-03-30 05:49:00,35.0,27.9,30.09,SW,236,0.0,0.0,75,0.00,,---,0.00,VWS V13.00,2013-03-30 11:49:00,
2013-03-30 05:54:00,34.9,27.8,30.09,SW,236,0.0,0.0,75,0.00,,---,0.00,VWS V13.00,2013-03-30 11:54:00,
2013-03-30 05:59:00,35.0,27.9,30.09,SW,236,0.0,0.0,75,0.00,,---,0.00,VWS V13.00,2013-03-30 11:59:00,
2013-03-30 06:04:00,34.9,27.8,30.09,SW,236,0.0,0.0,75,0.00,,---,0.00,VWS V13.00,2013-03-30 12:04:00,
2013-03-30 06:09:00,35.0,27.9,30.09,SW,236,1.0,2.0,75,0.00,,---,0.00,VWS V13.00,2013-03-30 12:09:00,
2013-03-30 06:14:00,35.0,27.9,30.09,SW,236,0.0,2.0,75,0.00,,---,0.00,VWS V13.00,2013-03-30 12:14:00,
2013-03-30 06:19:00,34.9,27.8,30.09,SW,236,0.0,2.0,75,0.00,,---,0.00,VWS V13.00,2013-03-30 12:19:00,
2013-03-30 06:24:00,34.9,27.8,30.09,SW,236,0.0,2.0,75,0.00,,---,0.00,VWS V13.00,2013-03-30 12:24:00,
2013-03-30 06:29:00,34.8,27.7,30.09,SW,236,0.0,2.0,75,0.00,,---,0.00,VWS V13.00,2013-03-30 12:29:00,
2013-03-30 06:34:00,34.8,27.7,30.09,SW,236,0.0,2.0,75,0.00,,---,0.00,VWS V13.00,2013-03-30 12:34:00,
2013-03-30 06:39:00,35.0,27.9,30.09,SW,236,5.0,5.0,75,0.00,,---,0.00,VWS V13.00,2013-03-30 12:39:00,
2013-03-30 06:44:00,35.1,28.0,30.09,WSW,237,4.0,6.0,75,0.00,,---,0.00,VWS V13.00,2013-03-30 12:44:00,
2013-03-30 06:49:00,35.3,27.9,30.09,WSW,237,4.0,6.0,74,0.00,,---,0.00,VWS V13.00,2013-03-30 12:49:00,
2013-03-30 06:54:00,35.5,28.0,30.11,WSW,237,1.0,6.0,74,0.00,,---,0.00,VWS V13.00,2013-03-30 12:54:00,
2013-03-30 06:59:00,35.6,28.1,30.11,WSW,237,2.0,6.0,74,0.00,,---,0.00,VWS V13.00,2013-03-30 12:59:00,
2013-03-30 07:04:00,35.6,28.1,30.11,WSW,237,1.0,6.0,74,0.00,,---,0.00,VWS V13.00,2013-03-30 13:04:00,
2013-03-30 07:09:00,35.7,28.2,30.11,WSW,237,0.0,0.0,74,0.00,,---,0.00,VWS V13.00,2013-03-30 13:09:00,
2013-03-30 07:14:00,35.5,28.0,30.11,WSW,237,0.0,0.0,74,0.00,,---,0.00,VWS V13.00,2013-03-30 13:14:00,
2013-03-30 07:19:00,35.3,27.9,30.11,WSW,237,0.0,0.0,74,0.00,,---,0.00,VWS V13.00,2013-03-30 13:19:00,
2013-03-30 07:24:00,35.1,28.0,30.12,WSW,237,0.0,0.0,75,0.00,,---,0.00,VWS V13.00,2013-03-30 13:24:00,
2013-03-30 07:29:00,34.9,28.1,30.12,WSW,237,0.0,0.0,76,0.00,,---,0.00,VWS V13.00,2013-03-30 13:29:00,
2013-03-30 07:34:00,35.0,28.2,30.12,WSW,237,0.0,0.0,76,0.00,,---,0.00,VWS V13.00,2013-03-30 13:34:00,
2013-03-30 07:39:00,35.0,28.2,30.12,WSW,237,0.0,0.0,76,0.00,,---,0.00,VWS V13.00,2013-03-30 13:39:00,
2013-03-30 07:44:00,35.1,28.0,30.12,WSW,237,0.0,0.0,75,0.00,,---,0.00,VWS V13.00,2013-03-30 13:44:00,
2013-03-30 07:49:00,35.1,28.0,30.12,WSW,237,0.0,0.0,75,0.00,,---,0.00,VWS V13.00,2013-03-30 13:49:00,
2013-03-30 07:54:00,35.1,28.0,30.13,WSW,237,0.0,0.0,75,0.00,,---,0.00,VWS V13.00,2013-03-30 13:54:00,
2013-03-30 07:59:00,35.2,28.1,30.13,WSW,237,0.0,0.0,75,0.00,,---,0.00,VWS V13.00,2013-03-30 13:59:00,
2013-03-30 08:04:00,35.4,28.9,30.13,WSW,237,0.0,0.0,77,0.00,,---,0.00,VWS V13.00,2013-03-30 14:04:00,
2013-03-30 08:09:00,35.6,28.8,30.12,WSW,237,0.0,0.0,76,0.00,,---,0.00,VWS V13.00,2013-03-30 14:09:00,
2013-03-30 08:14:00,35.9,28.8,30.12,WSW,237,0.0,0.0,75,0.00,,---,0.00,VWS V13.00,2013-03-30 14:14:00,
2013-03-30 08:19:00,36.3,29.1,30.12,WSW,237,0.0,0.0,75,0.00,,---,0.00,VWS V13.00,2013-03-30 14:19:00,
2013-03-30 08:24:00,36.6,29.4,30.13,WSW,237,4.0,4.0,75,0.00,,---,0.00,VWS V13.00,2013-03-30 14:24:00,
2013-03-30 08:29:00,36.8,29.3,30.13,WSW,237,0.0,4.0,74,0.00,,---,0.00,VWS V13.00,2013-03-30 14:29:00,
2013-03-30 08:34:00,37.1,29.3,30.13,WSW,237,0.0,4.0,73,0.00,,---,0.00,VWS V13.00,2013-03-30 14:34:00,
2013-03-30 08:39:00,37.1,29.3,30.13,WSW,237,5.0,5.0,73,0.00,,---,0.00,VWS V13.00,2013-03-30 14:39:00,
2013-03-30 08:44:00,37.3,29.5,30.13,WNW,288,8.0,10.0,73,0.00,,---,0.00,VWS V13.00,2013-03-30 14:44:00,
2013-03-30 08:49:00,37.8,29.6,30.13,WNW,296,13.0,14.0,72,0.00,,---,0.00,VWS V13.00,2013-03-30 14:49:00,
2013-03-30 08:54:00,38.6,29.3,30.14,WNW,290,13.0,15.0,69,0.00,,---,0.00,VWS V13.00,2013-03-30 14:54:00,
2013-03-30 08:59:00,39.2,29.5,30.14,WNW,289,10.0,15.0,68,0.00,,---,0.00,VWS V13.00,2013-03-30 14:59:00,
2013-03-30 09:04:00,39.5,29.8,30.14,WNW,289,12.0,15.0,68,0.00,,---,0.00,VWS V13.00,2013-03-30 15:04:00,
2013-03-30 09:09:00,39.7,29.7,30.13,West,281,12.0,12.0,67,0.00,,---,0.00,VWS V13.00,2013-03-30 15:09:00,
2013-03-30 09:14:00,39.8,29.8,30.13,West,273,11.0,15.0,67,0.00,,---,0.00,VWS V13.00,2013-03-30 15:14:00,
2013-03-30 09:19:00,39.9,29.9,30.13,West,281,13.0,15.0,67,0.00,,---,0.00,VWS V13.00,2013-03-30 15:19:00,
2013-03-30 09:24:00,40.0,29.6,30.13,West,274,10.0,16.0,66,0.00,,---,0.00,VWS V13.00,2013-03-30 15:24:00,
2013-03-30 09:29:00,40.1,29.7,30.13,West,274,12.0,16.0,66,0.00,,---,0.00,VWS V13.00,2013-03-30 15:29:00,
2013-03-30 09:34:00,40.2,29.8,30.13,West,276,13.0,16.0,66,0.00,,---,0.00,VWS V13.00,2013-03-30 15:34:00,
2013-03-30 09:39:00,40.4,30.0,30.13,West,278,9.0,12.0,66,0.00,,---,0.00,VWS V13.00,2013-03-30 15:39:00,
2013-03-30 09:44:00,40.7,30.2,30.13,WNW,284,12.0,14.0,66,0.00,,---,0.00,VWS V13.00,2013-03-30 15:44:00,
2013-03-30 09:49:00,40.9,29.7,30.13,West,275,10.0,15.0,64,0.00,,---,0.00,VWS V13.00,2013-03-30 15:49:00,
2013-03-30 09:54:00,41.1,30.6,30.14,West,275,12.0,15.0,66,0.00,,---,0.00,VWS V13.00,2013-03-30 15:54:00,
2013-03-30 09:59:00,41.8,30.9,30.14,WNW,288,11.0,15.0,65,0.00,,---,0.00,VWS V13.00,2013-03-30 15:59:00,
2013-03-30 10:04:00,42.5,30.4,30.14,WNW,288,11.0,16.0,62,0.00,,---,0.00,VWS V13.00,2013-03-30 16:04:00,
2013-03-30 10:09:00,43.4,30.0,30.13,NW,306,10.0,12.0,59,0.00,,---,0.00,VWS V13.00,2013-03-30 16:09:00,
2013-03-30 10:14:00,44.1,29.9,30.13,NW,319,17.0,24.0,57,0.00,,---,0.00,VWS V13.00,2013-03-30 16:14:00,
2013-03-30 10:19:00,44.8,29.6,30.13,NW,307,20.0,24.0,55,0.00,,---,0.00,VWS V13.00,2013-03-30 16:19:00,
2013-03-30 10:24:00,45.0,28.5,30.12,WNW,303,24.0,32.0,52,0.00,,---,0.00,VWS V13.00,2013-03-30 16:24:00,
2013-03-30 10:29:00,45.4,28.8,30.12,WNW,297,23.0,32.0,52,0.00,,---,0.00,VWS V13.00,2013-03-30 16:29:00,
2013-03-30 10:34:00,45.5,29.4,30.12,WNW,284,21.0,32.0,53,0.00,,---,0.00,VWS V13.00,2013-03-30 16:34:00,
2013-03-30 10:39:00,46.1,28.5,30.11,NW,310,25.0,26.0,50,0.00,,---,0.00,VWS V13.00,2013-03-30 16:39:00,
2013-03-30 10:44:00,47.0,28.3,30.11,NNW,330,21.0,28.0,48,0.00,,---,0.00,VWS V13.00,2013-03-30 16:44:00,
2013-03-30 10:49:00,47.7,28.5,30.11,WNW,300,23.0,28.0,47,0.00,,---,0.00,VWS V13.00,2013-03-30 16:49:00,
2013-03-30 10:54:00,47.9,28.1,30.11,NW,326,21.0,28.0,46,0.00,,---,0.00,VWS V13.00,2013-03-30 16:54:00,
2013-03-30 10:59:00,48.2,28.4,30.11,WNW,291,19.0,28.0,46,0.00,,---,0.00,VWS V13.00,2013-03-30 16:59:00,
2013-03-30 11:04:00,48.7,28.3,30.11,NW,311,25.0,28.0,45,0.00,,---,0.00,VWS V13.00,2013-03-30 17:04:00,
2013-03-30 11:09:00,48.7,27.8,30.11,WNW,302,20.0,23.0,44,0.00,,---,0.00,VWS V13.00,2013-03-30 17:09:00,
2013-03-30 11:14:00,48.5,26.5,30.11,NW,310,21.0,27.0,42,0.00,,---,0.00,VWS V13.00,2013-03-30 17:14:00,
2013-03-30 11:19:00,48.5,27.0,30.11,NW,304,19.0,27.0,43,0.00,,---,0.00,VWS V13.00,2013-03-30 17:19:00,
2013-03-30 11:24:00,49.0,27.5,30.11,NW,306,19.0,27.0,43,0.00,,---,0.00,VWS V13.00,2013-03-30 17:24:00,
2013-03-30 11:29:00,49.5,26.8,30.11,NW,306,24.0,31.0,41,0.00,,---,0.00,VWS V13.00,2013-03-30 17:29:00,
2013-03-30 11:34:00,49.2,26.5,30.11,NW,306,22.0,31.0,41,0.00,,---,0.00,VWS V13.00,2013-03-30 17:34:00,
2013-03-30 11:39:00,49.4,26.7,30.10,WNW,296,22.0,23.0,41,0.00,,---,0.00,VWS V13.00,2013-03-30 17:39:00,
2013-03-30 11:44:00,49.4,26.1,30.10,NW,304,19.0,30.0,40,0.00,,---,0.00,VWS V13.00,2013-03-30 17:44:00,
2013-03-30 11:49:00,49.2,26.5,30.10,NW,313,23.0,30.0,41,0.00,,---,0.00,VWS V13.00,2013-03-30 17:49:00,
2013-03-30 11:54:00,49.3,26.6,30.11,NW,307,23.0,30.0,41,0.00,,---,0.00,VWS V13.00,2013-03-30 17:54:00,
2013-03-30 11:59:00,49.4,26.7,30.11,NW,317,26.0,30.0,41,0.00,,---,0.00,VWS V13.00,2013-03-30 17:59:00,
2013-03-30 12:04:00,49.2,26.5,30.11,NW,305,24.0,30.0,41,0.00,,---,0.00,VWS V13.00,2013-03-30 18:04:00,
2013-03-30 12:09:00,49.4,26.1,30.12,NW,311,27.0,27.0,40,0.00,,---,0.00,VWS V13.00,2013-03-30 18:09:00,
2013-03-30 12:14:00,49.3,26.6,30.12,NW,307,22.0,31.0,41,0.00,,---,0.00,VWS V13.00,2013-03-30 18:14:00,
2013-03-30 12:19:00,49.4,26.7,30.12,NW,305,22.0,31.0,41,0.00,,---,0.00,VWS V13.00,2013-03-30 18:19:00,
2013-03-30 12:24:00,49.7,27.0,30.12,NW,304,24.0,31.0,41,0.00,,---,0.00,VWS V13.00,2013-03-30 18:24:00,
2013-03-30 12:29:00,50.2,27.4,30.12,NW,314,24.0,31.0,41,0.00,,---,0.00,VWS V13.00,2013-03-30 18:29:00,
2013-03-30 12:34:00,50.8,26.1,30.12,NW,309,20.0,31.0,38,0.00,,---,0.00,VWS V13.00,2013-03-30 18:34:00,
2013-03-30 12:39:00,51.0,26.3,30.11,NNW,338,26.0,30.0,38,0.00,,---,0.00,VWS V13.00,2013-03-30 18:39:00,
2013-03-30 12:44:00,49.9,24.7,30.11,NW,304,23.0,30.0,37,0.00,,---,0.00,VWS V13.00,2013-03-30 18:44:00,
2013-03-30 12:49:00,50.2,24.3,30.11,NW,311,30.0,33.0,36,0.00,,---,0.00,VWS V13.00,2013-03-30 18:49:00,
2013-03-30 12:54:00,49.9,24.0,30.12,NW,309,21.0,33.0,36,0.00,,---,0.00,VWS V13.00,2013-03-30 18:54:00,
2013-03-30 12:59:00,50.1,25.5,30.12,NW,316,19.0,33.0,38,0.00,,---,0.00,VWS V13.00,2013-03-30 18:59:00,
2013-03-30 13:04:00,50.9,25.6,30.12,NW,308,20.0,33.0,37,0.00,,---,0.00,VWS V13.00,2013-03-30 19:04:00,
2013-03-30 13:09:00,51.4,25.4,30.12,NW,315,25.0,27.0,36,0.00,,---,0.00,VWS V13.00,2013-03-30 19:09:00,
2013-03-30 13:14:00,51.2,26.5,30.12,NW,307,19.0,27.0,38,0.00,,---,0.00,VWS V13.00,2013-03-30 19:14:00,
2013-03-30 13:19:00,50.5,25.2,30.12,NW,312,20.0,33.0,37,0.00,,---,0.00,VWS V13.00,2013-03-30 19:19:00,
2013-03-30 13:24:00,50.3,25.0,30.12,NW,319,24.0,33.0,37,0.00,,---,0.00,VWS V13.00,2013-03-30 19:24:00,
2013-03-30 13:29:00,50.5,25.9,30.12,NNW,330,15.0,33.0,38,0.00,,---,0.00,VWS V13.00,2013-03-30 19:29:00,
2013-03-30 13:34:00,50.2,25.0,30.12,NW,321,19.0,33.0,37,0.00,,---,0.00,VWS V13.00,2013-03-30 19:34:00,
2013-03-30 13:39:00,49.8,25.9,30.12,NW,325,22.0,24.0,39,0.00,,---,0.00,VWS V13.00,2013-03-30 19:39:00,
2013-03-30 13:44:00,50.3,25.0,30.12,NW,309,20.0,30.0,37,0.00,,---,0.00,VWS V13.00,2013-03-30 19:44:00,
2013-03-30 13:49:00,50.9,24.9,30.12,NW,315,25.0,30.0,36,0.00,,---,0.00,VWS V13.00,2013-03-30 19:49:00,
2013-03-30 13:54:00,51.2,24.5,30.13,NNW,327,23.0,31.0,35,0.00,,---,0.00,VWS V13.00,2013-03-30 19:54:00,
2013-03-30 13:59:00,51.0,23.6,30.13,NNW,327,22.0,31.0,34,0.00,,---,0.00,VWS V13.00,2013-03-30 19:59:00,
2013-03-30 14:04:00,51.1,25.1,30.13,WNW,294,18.0,31.0,36,0.00,,---,0.00,VWS V13.00,2013-03-30 20:04:00,
2013-03-30 14:09:00,51.4,24.0,30.13,NW,315,25.0,29.0,34,0.00,,---,0.00,VWS V13.00,2013-03-30 20:09:00,
2013-03-30 14:14:00,51.5,24.1,30.13,NW,309,20.0,29.0,34,0.00,,---,0.00,VWS V13.00,2013-03-30 20:14:00,
2013-03-30 14:19:00,51.7,24.3,30.13,NW,315,17.0,29.0,34,0.00,,---,0.00,VWS V13.00,2013-03-30 20:19:00,
2013-03-30 14:24:00,51.2,24.5,30.13,NW,309,20.0,29.0,35,0.00,,---,0.00,VWS V13.00,2013-03-30 20:24:00,
2013-03-30 14:29:00,51.1,23.7,30.13,NW,313,15.0,29.0,34,0.00,,---,0.00,VWS V13.00,2013-03-30 20:29:00,
2013-03-30 14:34:00,51.8,24.3,30.13,NW,317,18.0,29.0,34,0.00,,---,0.00,VWS V13.00,2013-03-30 20:34:00,
2013-03-30 14:39:00,52.1,24.6,30.12,NNW,337,20.0,21.0,34,0.00,,---,0.00,VWS V13.00,2013-03-30 20:39:00,
2013-03-30 14:44:00,52.7,24.4,30.12,WNW,299,13.0,22.0,33,0.00,,---,0.00,VWS V13.00,2013-03-30 20:44:00,
2013-03-30 14:49:00,52.6,23.6,30.12,WNW,282,16.0,28.0,32,0.00,,---,0.00,VWS V13.00,2013-03-30 20:49:00,
2013-03-30 14:54:00,52.4,24.9,30.12,NNW,333,21.0,28.0,34,0.00,,---,0.00,VWS V13.00,2013-03-30 20:54:00,
2013-03-30 14:59:00,51.8,23.6,30.12,NW,325,15.0,29.0,33,0.00,,---,0.00,VWS V13.00,2013-03-30 20:59:00,
2013-03-30 15:04:00,51.4,24.0,30.12,NW,317,22.0,29.0,34,0.00,,---,0.00,VWS V13.00,2013-03-30 21:04:00,
2013-03-30 15:09:00,51.4,24.0,30.13,NW,311,17.0,23.0,34,0.00,,---,0.00,VWS V13.00,2013-03-30 21:09:00,
2013-03-30 15:14:00,51.4,24.0,30.13,NW,311,14.0,26.0,34,0.00,,---,0.00,VWS V13.00,2013-03-30 21:14:00,
2013-03-30 15:19:00,51.5,24.1,30.13,NNW,330,13.0,26.0,34,0.00,,---,0.00,VWS V13.00,2013-03-30 21:19:00,
2013-03-30 15:24:00,51.7,25.0,30.12,WNW,298,17.0,26.0,35,0.00,,---,0.00,VWS V13.00,2013-03-30 21:24:00,
2013-03-30 15:29:00,51.9,24.4,30.12,NNW,329,14.0,26.0,34,0.00,,---,0.00,VWS V13.00,2013-03-30 21:29:00,
2013-03-30 15:34:00,51.8,24.3,30.12,NW,313,17.0,26.0,34,0.00,,---,0.00,VWS V13.00,2013-03-30 21:34:00,
2013-03-30 15:39:00,52.1,24.6,30.12,NW,306,11.0,17.0,34,0.00,,---,0.00,VWS V13.00,2013-03-30 21:39:00,
2013-03-30 15:44:00,52.4,24.9,30.12,NNW,331,23.0,25.0,34,0.00,,---,0.00,VWS V13.00,2013-03-30 21:44:00,
2013-03-30 15:49:00,52.2,24.0,30.12,NW,309,12.0,25.0,33,0.00,,---,0.00,VWS V13.00,2013-03-30 21:49:00,
2013-03-30 15:54:00,52.2,24.7,30.12,NW,315,7.0,25.0,34,0.00,,---,0.00,VWS V13.00,2013-03-30 21:54:00,
2013-03-30 15:59:00,52.5,23.5,30.12,NW,306,17.0,25.0,32,0.00,,---,0.00,VWS V13.00,2013-03-30 21:59:00,
2013-03-30 16:04:00,52.6,24.3,30.12,NW,309,12.0,25.0,33,0.00,,---,0.00,VWS V13.00,2013-03-30 22:04:00,
2013-03-30 16:09:00,52.6,24.3,30.11,NW,321,14.0,16.0,33,0.00,,---,0.00,VWS V13.00,2013-03-30 22:09:00,
2013-03-30 16:14:00,52.5,25.0,30.11,NW,310,13.0,22.0,34,0.00,,---,0.00,VWS V13.00,2013-03-30 22:14:00,
2013-03-30 16:19:00,52.9,25.3,30.11,NNW,342,11.0,22.0,34,0.00,,---,0.00,VWS V13.00,2013-03-30 22:19:00,
2013-03-30 16:24:00,53.0,24.7,30.11,NW,317,16.0,22.0,33,0.00,,---,0.00,VWS V13.00,2013-03-30 22:24:00,
2013-03-30 16:29:00,52.7,24.4,30.11,NW,310,14.0,22.0,33,0.00,,---,0.00,VWS V13.00,2013-03-30 22:29:00,
2013-03-30 16:34:00,52.8,24.5,30.11,WNW,300,6.0,22.0,33,0.00,,---,0.00,VWS V13.00,2013-03-30 22:34:00,
2013-03-30 16:39:00,52.9,24.6,30.10,NW,318,10.0,10.0,33,0.00,,---,0.00,VWS V13.00,2013-03-30 22:39:00,
2013-03-30 16:44:00,53.0,24.7,30.10,WNW,290,10.0,18.0,33,0.00,,---,0.00,VWS V13.00,2013-03-30 22:44:00,
2013-03-30 16:49:00,53.0,24.0,30.10,NW,314,9.0,18.0,32,0.00,,---,0.00,VWS V13.00,2013-03-30 22:49:00,
2013-03-30 16:54:00,52.7,24.4,30.09,NW,307,7.0,18.0,33,0.00,,---,0.00,VWS V13.00,2013-03-30 22:54:00,
2013-03-30 16:59:00,52.8,24.5,30.09,WNW,296,12.0,19.0,33,0.00,,---,0.00,VWS V13.00,2013-03-30 22:59:00,
2013-03-30 17:04:00,52.6,25.0,30.09,WNW,286,5.0,19.0,34,0.00,,---,0.00,VWS V13.00,2013-03-30 23:04:00,
2013-03-30 17:09:00,52.7,24.4,30.08,NW,325,7.0,7.0,33,0.00,,---,0.00,VWS V13.00,2013-03-30 23:09:00,
2013-03-30 17:14:00,52.5,24.2,30.08,WNW,300,11.0,13.0,33,0.00,,---,0.00,VWS V13.00,2013-03-30 23:14:00,
2013-03-30 17:19:00,52.3,24.1,30.08,NW,311,16.0,16.0,33,0.00,,---,0.00,VWS V13.00,2013-03-30 23:19:00,
2013-03-30 17:24:00,52.1,24.6,30.09,NW,323,5.0,16.0,34,0.00,,---,0.00,VWS V13.00,2013-03-30 23:24:00,
2013-03-30 17:29:00,51.9,24.4,30.09,NW,307,11.0,20.0,34,0.00,,---,0.00,VWS V13.00,2013-03-30 23:29:00,
2013-03-30 17:34:00,51.8,25.0,30.09,WNW,303,12.0,20.0,35,0.00,,---,0.00,VWS V13.00,2013-03-30 23:34:00,
2013-03-30 17:39:00,51.7,24.3,30.08,WNW,296,10.0,20.0,34,0.00,,---,0.00,VWS V13.00,2013-03-30 23:39:00,
2013-03-30 17:44:00,51.8,24.3,30.08,NW,314,5.0,12.0,34,0.00,,---,0.00,VWS V13.00,2013-03-30 23:44:00,
2013-03-30 17:49:00,51.9,24.4,30.08,NW,321,6.0,12.0,34,0.00,,---,0.00,VWS V13.00,2013-03-30 23:49:00,
2013-03-30 17:54:00,51.9,25.1,30.07,NNW,327,9.0,12.0,35,0.00,,---,0.00,VWS V13.00,2013-03-30 23:54:00,
2013-03-30 17:59:00,51.8,24.3,30.07,NW,310,5.0,13.0,34,0.00,,---,0.00,VWS V13.00,2013-03-30 23:59:00,
2013-03-30 18:04:00,51.7,24.3,30.07,WNW,290,6.0,13.0,34,0.00,,---,0.00,VWS V13.00,2013-03-31 00:04:00,
2013-03-30 18:09:00,51.7,25.0,30.07,WNW,283,6.0,13.0,35,0.00,,---,0.00,VWS V13.00,2013-03-31 00:09:00,
2013-03-30 18:14:00,51.6,24.2,30.07,NW,306,5.0,9.0,34,0.00,,---,0.00,VWS V13.00,2013-03-31 00:14:00,
2013-03-30 18:19:00,51.5,24.8,30.07,WNW,286,3.0,9.0,35,0.00,,---,0.00,VWS V13.00,2013-03-31 00:19:00,
2013-03-30 18:24:00,51.3,23.9,30.07,WNW,286,0.0,9.0,34,0.00,,---,0.00,VWS V13.00,2013-03-31 00:24:00,
2013-03-30 18:29:00,51.2,24.5,30.07,WNW,286,0.0,9.0,35,0.00,,---,0.00,VWS V13.00,2013-03-31 00:29:00,
2013-03-30 18:34:00,51.2,24.5,30.07,WNW,287,0.0,9.0,35,0.00,,---,0.00,VWS V13.00,2013-03-31 00:34:00,
2013-03-30 18:39:00,51.1,24.4,30.06,WNW,287,0.0,9.0,35,0.00,,---,0.00,VWS V13.00,2013-03-31 00:39:00,
2013-03-30 18:44:00,51.0,24.3,30.06,WNW,296,0.0,5.0,35,0.00,,---,0.00,VWS V13.00,2013-03-31 00:44:00,
2013-03-30 18:49:00,50.9,24.2,30.06,WNW,296,0.0,5.0,35,0.00,,---,0.00,VWS V13.00,2013-03-31 00:49:00,
2013-03-30 18:54:00,50.8,24.1,30.06,WNW,297,0.0,6.0,35,0.00,,---,0.00,VWS V13.00,2013-03-31 00:54:00,
2013-03-30 18:59:00,50.5,23.9,30.06,WNW,297,3.0,6.0,35,0.00,,---,0.00,VWS V13.00,2013-03-31 00:59:00,
2013-03-30 19:04:00,50.2,23.6,30.06,WNW,296,0.0,6.0,35,0.00,,---,0.00,VWS V13.00,2013-03-31 01:04:00,
2013-03-30 19:09:00,50.0,24.1,30.07,WNW,297,0.0,6.0,36,0.00,,---,0.00,VWS V13.00,2013-03-31 01:09:00,
2013-03-30 19:14:00,49.7,23.9,30.07,WNW,297,0.0,0.0,36,0.00,,---,0.00,VWS V13.00,2013-03-31 01:14:00,
2013-03-30 19:19:00,49.3,23.5,30.07,WNW,297,0.0,0.0,36,0.00,,---,0.00,VWS V13.00,2013-03-31 01:19:00,
2013-03-30 19:24:00,48.8,23.7,30.06,WNW,296,0.0,0.0,37,0.00,,---,0.00,VWS V13.00,2013-03-31 01:24:00,
2013-03-30 19:29:00,48.4,24.0,30.06,WNW,297,0.0,0.0,38,0.00,,---,0.00,VWS V13.00,2013-03-31 01:29:00,
2013-03-30 19:34:00,47.9,23.5,30.06,WNW,297,0.0,0.0,38,0.00,,---,0.00,VWS V13.00,2013-03-31 01:34:00,
2013-03-30 19:39:00,47.3,23.6,30.07,WNW,294,4.0,5.0,39,0.00,,---,0.00,VWS V13.00,2013-03-31 01:39:00,
2013-03-30 19:43:00,46.6,23.0,30.07,SW,233,4.0,6.0,39,0.00,,---,0.00,VWS V13.00,2013-03-31 01:43:00,
2013-03-30 19:48:00,46.4,23.4,30.07,SW,231,1.0,6.0,40,0.00,,---,0.00,VWS V13.00,2013-03-31 01:48:00,
2013-03-30 19:53:00,46.0,23.6,30.06,SW,231,3.0,6.0,41,0.00,,---,0.00,VWS V13.00,2013-03-31 01:53:00,
2013-03-30 19:58:00,45.7,23.4,30.06,SW,231,3.0,6.0,41,0.00,,---,0.00,VWS V13.00,2013-03-31 01:58:00,
2013-03-30 20:03:00,45.0,24.4,30.06,South,190,7.0,7.0,44,0.00,,---,0.00,VWS V13.00,2013-03-31 02:03:00,
2013-03-30 20:08:00,43.3,24.4,30.07,SSE,148,5.0,7.0,47,0.00,,---,0.00,VWS V13.00,2013-03-31 02:08:00,
2013-03-30 20:13:00,41.8,23.6,30.07,SSE,148,5.0,7.0,48,0.00,,---,0.00,VWS V13.00,2013-03-31 02:13:00,
2013-03-30 20:18:00,40.9,23.2,30.07,SSE,148,6.0,7.0,49,0.00,,---,0.00,VWS V13.00,2013-03-31 02:18:00,
2013-03-30 20:23:00,40.1,23.0,30.09,SSE,147,6.0,7.0,50,0.00,,---,0.00,VWS V13.00,2013-03-31 02:23:00,
2013-03-30 20:29:00,40.0,24.3,30.09,SE,133,7.0,11.0,53,0.00,,---,0.00,VWS V13.00,2013-03-31 02:29:00,
2013-03-30 20:34:00,39.3,23.6,30.09,SE,134,7.0,11.0,53,0.00,,---,0.00,VWS V13.00,2013-03-31 02:34:00,
2013-03-30 20:39:00,38.6,23.4,30.09,SE,134,6.0,11.0,54,0.00,,---,0.00,VWS V13.00,2013-03-31 02:39:00,
2013-03-30 20:44:00,37.8,23.5,30.09,SE,134,6.0,7.0,56,0.00,,---,0.00,VWS V13.00,2013-03-31 02:44:00,
2013-03-30 20:49:00,37.3,23.5,30.09,SE,133,10.0,11.0,57,0.00,,---,0.00,VWS V13.00,2013-03-31 02:49:00,
2013-03-30 20:54:00,37.6,24.2,30.08,SE,129,7.0,13.0,58,0.00,,---,0.00,VWS V13.00,2013-03-31 02:54:00,
2013-03-30 20:59:00,37.3,23.9,30.08,SE,132,6.0,13.0,58,0.00,,---,0.00,VWS V13.00,2013-03-31 02:59:00,
2013-03-30 21:04:00,36.8,23.8,30.08,SE,132,4.0,13.0,59,0.00,,---,0.00,VWS V13.00,2013-03-31 03:04:00,
2013-03-30 21:09:00,36.4,23.9,30.09,SE,134,12.0,13.0,60,0.00,,---,0.00,VWS V13.00,2013-03-31 03:09:00,
2013-03-30 21:14:00,36.6,24.0,30.09,SE,136,12.0,13.0,60,0.00,,---,0.00,VWS V13.00,2013-03-31 03:14:00,
2013-03-30 21:19:00,36.5,23.5,30.09,SE,136,11.0,13.0,59,0.00,,---,0.00,VWS V13.00,2013-03-31 03:19:00,
2013-03-30 21:24:00,36.7,23.7,30.08,SE,132,12.0,14.0,59,0.00,,---,0.00,VWS V13.00,2013-03-31 03:24:00,
2013-03-30 21:29:00,36.7,23.7,30.08,SE,130,11.0,14.0,59,0.00,,---,0.00,VWS V13.00,2013-03-31 03:29:00,
2013-03-30 21:34:00,35.6,23.5,30.08,SE,130,11.0,14.0,61,0.00,,---,0.00,VWS V13.00,2013-03-31 03:34:00,
2013-03-30 21:39:00,35.0,23.7,30.09,SE,136,12.0,14.0,63,0.00,,---,0.00,VWS V13.00,2013-03-31 03:39:00,
2013-03-30 21:44:00,35.3,24.0,30.09,SE,134,12.0,14.0,63,0.00,,---,0.00,VWS V13.00,2013-03-31 03:44:00,
2013-03-30 21:48:00,35.5,24.2,30.09,SE,136,11.0,14.0,63,0.00,,---,0.00,VWS V13.00,2013-03-31 03:48:00,
2013-03-30 21:53:00,35.5,23.8,30.06,SE,142,11.0,14.0,62,0.00,,---,0.00,VWS V13.00,2013-03-31 03:53:00,
2013-03-30 21:59:00,36.0,23.9,30.06,SE,141,11.0,14.0,61,0.00,,---,0.00,VWS V13.00,2013-03-31 03:59:00,
2013-03-30 22:00:00,36.1,24.0,30.06,SE,141,10.0,14.0,61,0.00,,---,0.00,VWS V13.00,2013-03-31 04:00:00,
2013-03-30 22:05:00,36.2,24.1,30.06,SE,140,10.0,14.0,61,0.00,,---,0.00,VWS V13.00,2013-03-31 04:05:00,
2013-03-30 22:10:00,36.6,24.0,30.06,SE,140,11.0,11.0,60,0.00,,---,0.00,VWS V13.00,2013-03-31 04:10:00,
2013-03-30 22:15:00,36.8,24.2,30.06,SE,138,7.0,11.0,60,0.00,,---,0.00,VWS V13.00,2013-03-31 04:15:00,
2013-03-30 22:20:00,36.2,24.5,30.06,SE,137,9.0,11.0,62,0.00,,---,0.00,VWS V13.00,2013-03-31 04:20:00,
2013-03-30 22:25:00,36.1,24.7,30.05,SE,140,9.0,11.0,63,0.00,,---,0.00,VWS V13.00,2013-03-31 04:25:00,
2013-03-30 22:30:00,36.1,24.4,30.05,SE,139,11.0,11.0,62,0.00,,---,0.00,VWS V13.00,2013-03-31 04:30:00,
2013-03-30 22:35:00,36.4,24.6,30.05,SE,134,10.0,11.0,62,0.00,,---,0.00,VWS V13.00,2013-03-31 04:35:00,
2013-03-30 22:40:00,36.6,24.8,30.04,SE,134,10.0,10.0,62,0.00,,---,0.00,VWS V13.00,2013-03-31 04:40:00,
2013-03-30 22:45:00,36.4,24.6,30.04,SE,136,11.0,12.0,62,0.00,,---,0.00,VWS V13.00,2013-03-31 04:45:00,
2013-03-30 22:50:00,37.0,24.4,30.04,SE,133,11.0,13.0,60,0.00,,---,0.00,VWS V13.00,2013-03-31 04:50:00,
2013-03-30 22:55:00,37.8,24.4,30.01,SE,130,9.0,13.0,58,0.00,,---,0.00,VWS V13.00,2013-03-31 04:55:00,
2013-03-30 23:00:00,37.8,24.4,30.01,SE,129,5.0,13.0,58,0.00,,---,0.00,VWS V13.00,2013-03-31 05:00:00,
2013-03-30 23:05:00,37.2,24.6,30.01,SE,136,10.0,13.0,60,0.00,,---,0.00,VWS V13.00,2013-03-31 05:05:00,
2013-03-30 23:10:00,36.7,24.1,30.00,SE,140,9.0,9.0,60,0.00,,---,0.00,VWS V13.00,2013-03-31 05:10:00,
2013-03-30 23:15:00,36.6,24.0,30.00,SSE,149,9.0,11.0,60,0.00,,---,0.00,VWS V13.00,2013-03-31 05:15:00,
2013-03-30 23:20:00,36.4,23.9,30.00,SE,146,6.0,11.0,60,0.00,,---,0.00,VWS V13.00,2013-03-31 05:20:00,
2013-03-30 23:25:00,36.0,23.9,30.01,SE,146,4.0,11.0,61,0.00,,---,0.00,VWS V13.00,2013-03-31 05:25:00,
2013-03-30 23:30:00,35.4,23.7,30.01,SE,146,10.0,11.0,62,0.00,,---,0.00,VWS V13.00,2013-03-31 05:30:00,
2013-03-30 23:35:00,35.5,23.8,30.01,SSE,150,6.0,11.0,62,0.00,,---,0.00,VWS V13.00,2013-03-31 05:35:00,
2013-03-30 23:40:00,35.5,23.8,30.00,SSE,155,9.0,10.0,62,0.00,,---,0.00,VWS V13.00,2013-03-31 05:40:00,
2013-03-30 23:45:00,35.5,23.8,30.00,SSE,153,6.0,10.0,62,0.00,,---,0.00,VWS V13.00,2013-03-31 05:45:00,
2013-03-30 23:50:00,35.9,23.8,30.00,SSE,153,6.0,10.0,61,0.00,,---,0.00,VWS V13.00,2013-03-31 05:50:00,
2013-03-30 23:55:00,35.9,23.4,29.99,SSE,152,5.0,10.0,60,0.00,,---,0.00,VWS V13.00,2013-03-31 05:55:00,